TimeEST,TemperatureF,Dew PointF,Humidity,Sea Level PressureIn,VisibilityMPH,Wind Direction,Wind SpeedMPH,Gust SpeedMPH,PrecipitationIn,Events,Conditions,WindDirDegrees,DateUTC
12:54 AM,32.0,17.1,54,30.31,10.0,WSW,5.8,-,N/A,,Clear,240,2012-11-30 05:54:00
1:54 AM,32.0,18.0,56,30.31,10.0,WSW,4.6,-,N/A,,Clear,240,2012-11-30 06:54:00
2:54 AM,33.1,19.0,56,30.30,10.0,WSW,4.6,-,N/A,,Clear,250,2012-11-30 07:54:00
3:54 AM,35.1,19.0,52,30.30,10.0,SW,3.5,-,N/A,,Partly Cloudy,230,2012-11-30 08:54:00
4:54 AM,35.1,19.9,54,30.30,10.0,SSW,4.6,-,N/A,,Mostly Cloudy,200,2012-11-30 09:54:00
5:54 AM,35.1,19.9,54,30.31,10.0,South,3.5,-,N/A,,Scattered Clouds,190,2012-11-30 10:54:00
6:54 AM,35.1,19.9,54,30.32,10.0,South,4.6,-,N/A,,Mostly Cloudy,190,2012-11-30 11:54:00
7:54 AM,36.0,21.0,55,30.32,10.0,SSW,4.6,-,N/A,,Mostly Cloudy,200,2012-11-30 12:54:00
8:54 AM,36.0,21.9,57,30.32,10.0,Calm,Calm,-,N/A,,Clear,0,2012-11-30 13:54:00
9:54 AM,39.0,21.9,50,30.32,10.0,South,6.9,-,N/A,,Mostly Cloudy,170,2012-11-30 14:54:00
10:54 AM,41.0,21.9,47,30.32,10.0,South,5.8,-,N/A,,Clear,180,2012-11-30 15:54:00
11:54 AM,43.0,23.0,45,30.30,10.0,SSW,6.9,-,N/A,,Clear,200,2012-11-30 16:54:00
12:54 PM,45.0,24.1,44,30.28,10.0,South,6.9,-,N/A,,Clear,190,2012-11-30 17:54:00
1:54 PM,46.9,26.1,44,30.25,10.0,SSW,8.1,-,N/A,,Clear,200,2012-11-30 18:54:00
2:54 PM,46.9,25.0,42,30.24,10.0,South,6.9,-,N/A,,Clear,190,2012-11-30 19:54:00
3:54 PM,46.9,25.0,42,30.24,10.0,SSW,6.9,-,N/A,,Mostly Cloudy,210,2012-11-30 20:54:00
4:54 PM,42.1,24.1,49,30.26,10.0,SSE,6.9,-,N/A,,Overcast,160,2012-11-30 21:54:00
5:54 PM,41.0,24.1,51,30.26,10.0,SSE,8.1,-,N/A,,Mostly Cloudy,150,2012-11-30 22:54:00
6:54 PM,39.0,23.0,53,30.28,10.0,SSE,4.6,-,N/A,,Mostly Cloudy,150,2012-11-30 23:54:00
8:54 PM,41.0,24.1,51,30.27,10.0,SSE,6.9,-,N/A,,Overcast,150,2012-12-01 01:54:00
9:54 PM,39.9,24.1,53,30.28,10.0,SE,9.2,-,N/A,,Mostly Cloudy,140,2012-12-01 02:54:00
10:54 PM,37.9,23.0,55,30.30,10.0,SSE,6.9,-,N/A,,Overcast,160,2012-12-01 03:54:00